Location: Boitzum
(52.1496°N, 9.6943°E)
Time: 09:43:43
(UTC+00:00)

Cosmos 1805 Rocket - Pass Details

Date: 13 January 2026
Orbit: 598 x 623 km, 82.5° (Epoch: 18 February)

Event Time Altitude Azimuth Distance (km) Brightness Sun altitude
Rises 05:34:58 0° 197° (SSW) 2,894 7.0 -16.0°
Reaches altitude 10° 05:37:12 10° 200° (SSW) 1,992 6.1 -15.7°
Maximum altitude 05:41:36 66° 282° (WNW) 683 3.5 -15.1°
Drops below altitude 10° 05:46:02 10° 6° (N) 2,002 6.1 -14.4°
Sets 05:48:17 0° 9° (N) 2,910 6.9 -14.1°
